Voltar ao catálogo

STARLINK-33740

AtivoComunicaçõesVLEO
NORAD 63451·PAYLOAD·🇺🇸 United States

Lançado Apr 4, 2025 de Vandenberg Space Force Base

Loading…

Próximas Passagens (próximas 24 horas)

TLE

AtualizadoSource: CelesTrak SupGP

Época: Sep 14, 2026, 20:42 UTC

1 63451C 25069U   26257.86298611 -.00018947  00000+0 -55963-3 0  2572
2 63451  53.1598 334.3563 0001177  77.2602 171.6213 15.34408976    18

Acompanhe STARLINK-33740 em tempo real com AllMySat

Download on the App Store